DECAYED

STARLINK-1993, 47588 (Decayed)

Orbit data source: Space-Track

STARLINK-1993, 47588 was a payload satellite owned by SpaceX/Seattle (US) in LEO that was launched on Thu, 04 Feb 2021 UTC via an FALCON 9 launch vehicle from the Air Force Eastern Test Range (AFETR). Payload-class satellites include a variety of spacecraft equipped with specific instruments for various scientific and technological missions. These include communications satellites like Starlink; space stations such as the ISS; scientific satellites like the Hubble; Earth observation satellites from companies like Planet Labs, Umbra, and HawkEye 360; GPS; miniature CubeSats for education and research; and military/defense satellites.

Not visible in the next 10 days
Identifier
47588, 2021-009AS
Orbit
Decayed
Country
Flag of USUS
Related business
Manufacturer
SpaceX/Seattle
Mission
Decayed Commercial Communications
Bus & Motor
STARLINK, Unknown motor
Mass
260 kg wet, ~248 kg dry
Launch date (UTC)
2021-02-04 (5 years ago)
Launch vehicle
FALCON 9
Launch site
Air Force Eastern Test Range (AFETR)
Object type
Payload
Rocket body
Debris
Shape & HBR
Box + 1 Pan, 10.1 m
Radar Cross Section
13.562 m², Large (>1 m²)

Expand to show TLE details & history
Last TLE update: 3 weeks ago

TLE from 3 weeks ago
0 STARLINK-1993
1 47588U 21009AS  26155.31024500  .09486131  12469-4  63668-3 0  9998
2 47588  53.0183 261.1265 0009954 304.0076  56.0025 16.40470083295135
Epoch: 2026-06-04T07:26Z
TLE epoch observation values (Epoch: 2026-06-04T07:26:45.167Z)
Latitude
0.00002°
Longitude
-103.31803°
Altitude
161.842 km
Speed
7.813 km/s
True Right ascension
17h 24m 30s
True Declination
0° 00' 00"
Sunlit
Object was in full shadow at epoch
Visualization orbit readout
Latitude
Unknown
Longitude
Unknown
Altitude
Unknown
Speed
Unknown
Apparent Right ascension
Unknown
Apparent Declination
Unknown
Sunlit
N/A
Visualization observer readout
Local Sidereal Time
21:41:19
Azimuth
Unknown
Elevation
Unknown
Doppler factor
Unknown
Orbital elements
Apogee altitude
171.357 km
Perigee altitude
158.332 km
Semi-major axis
6,542.982 km
Eccentricity
0.001
Inclination
53.0183°
RAAN
261.1265°
Arg. of periapsis
304.0076°
True anomaly
56.09713°
Mean anomaly
56.0025°
Eccentric anomaly
56.04981°
Mean motion
4.1009 °/min
Orbital period
87.79 mins
BSTAR
0.00063668
Loading maneuver chart data...
Computing Atmospheric mass density...

Documentation

Showing up to 5 results
|